Weather History for Cooperstown, ND

Change the Weather History Date:

Tuesday, November 20, 2012

  Actual Average (KJMS) Record (KJMS)
Temperature  
Mean Temperature 32 °F 25 °F  
Max Temperature 46 °F 34 °F 65 °F (1908)
Min Temperature 19 °F 16 °F -14 °F (1921)
Degree Days  
Heating Degree Days 32 40  
Month to date heating degree days 686  
Since 1 July heating degree days 1653  
Cooling Degree Days 0 0  
Month to date cooling degree days 0  
Year to date cooling degree days 446  
Moisture  
Dew Point 30 °F    
Average Humidity 89    
Maximum Humidity 100    
Minimum Humidity 57    
Precipitation  
Precipitation 0.00 in 0.02 in 0.64 in (1996)
Month to date precipitation 0.47  
Year to date precipitation 18.21  
Sea Level Pressure  
Sea Level Pressure 29.96 in    
Wind  
Wind Speed 8 mph (South)    
Max Wind Speed 20 mph    
Max Gust Speed 26 mph    
Visibility 10 miles    
Events      
T = Trace of Precipitation, MM = Missing Value Source: NWS Daily Summary

Daily Weather History Graph

Daily Weather History Graph

Search for Another Location

Airport:

Trip Planner

Search our weather history database for the weather conditions in past years. The results will help you decide how hot, cold, wet, or windy it might be!

Date:

Astronomy

Nov. 20, 2012 Rise Set
Actual Time 7:45 AM CST 4:50 PM CST
Civil Twilight 7:11 AM CST 5:24 PM CST
Nautical Twilight 6:33 AM CST 6:02 PM CST
Astronomical Twilight 5:56 AM CST 6:39 PM CST
Moon 1:05 PM CST (11/20) No Moon Set
Length of Visible Light 10h 13m
Length of Day
9h 05m
First Quarter, 51% of the Moon is Illuminated
Nov 20
First Quarter
Nov 28
Full
Dec 6
Last Quarter
Dec 13
New
Dec 19
First Quarter

Hourly Weather History & Observations

Time (CST) Temp. Windchill Dew Point Humidity Pressure Visibility Wind Dir Wind Speed Gust Speed Precip Events Conditions
12:15 AM 23.0 °F 18.4 °F 23.0 °F 100% 30.12 in 10.0 mi SSE 3.5 mph - N/A   Clear
12:35 AM 21.2 °F 14.9 °F 21.2 °F 100% 30.12 in 10.0 mi South 4.6 mph - N/A   Clear
12:55 AM 19.4 °F 14.3 °F 19.4 °F 100% 30.12 in 10.0 mi SSE 3.5 mph - N/A   Clear
1:15 AM 19.4 °F 12.8 °F 19.4 °F 100% 30.13 in 10.0 mi SW 4.6 mph - N/A   Clear
1:35 AM 23.0 °F 18.4 °F 23.0 °F 100% 30.12 in 9.0 mi SSW 3.5 mph - N/A   Clear
1:55 AM 19.4 °F 14.3 °F 19.4 °F 100% 30.12 in 7.0 mi South 3.5 mph - N/A   Clear
2:15 AM 21.2 °F - 21.2 °F 100% 30.12 in 7.0 mi Calm Calm - N/A   Clear
2:35 AM 19.4 °F 12.8 °F 19.4 °F 100% 30.11 in 4.0 mi South 4.6 mph - N/A   Clear
6:15 AM 23.0 °F 12.4 °F 23.0 °F 100% 30.07 in 10.0 mi South 10.4 mph - N/A   Clear
6:35 AM 23.0 °F 13.1 °F 23.0 °F 100% 30.07 in 10.0 mi South 9.2 mph - N/A   Clear
6:55 AM 23.0 °F 13.1 °F 23.0 °F 100% 30.07 in 10.0 mi South 9.2 mph - N/A   Clear
7:15 AM 24.8 °F 16.1 °F 24.8 °F 100% 30.07 in 10.0 mi South 8.1 mph - N/A   Clear
7:35 AM 24.8 °F 15.3 °F 24.8 °F 100% 30.07 in 8.0 mi South 9.2 mph - N/A   Clear
7:55 AM 26.6 °F 17.5 °F 26.6 °F 100% 30.06 in 8.0 mi South 9.2 mph - N/A   Clear
8:15 AM 26.6 °F 18.2 °F 26.6 °F 100% 30.05 in 8.0 mi South 8.1 mph - N/A   Clear
8:35 AM 26.6 °F 19.1 °F 26.6 °F 100% 30.05 in 9.0 mi South 6.9 mph - N/A   Clear
8:55 AM 28.4 °F 19.1 °F 28.4 °F 100% 30.05 in 9.0 mi South 10.4 mph - N/A   Clear
9:15 AM 32.0 °F 23.6 °F 32.0 °F 100% 30.04 in 9.0 mi South 10.4 mph - N/A   Clear
9:35 AM 32.0 °F 22.5 °F 32.0 °F 100% 30.03 in 9.0 mi South 12.7 mph - N/A   Clear
9:55 AM 32.0 °F 23.6 °F 32.0 °F 100% 30.04 in 10.0 mi South 10.4 mph - N/A   Clear
10:15 AM 33.8 °F 25.3 °F 33.8 °F 100% 30.04 in 9.0 mi South 11.5 mph - N/A   Clear
10:35 AM 33.8 °F 25.3 °F 33.8 °F 100% 30.04 in 9.0 mi South 11.5 mph - N/A   Clear
10:55 AM 35.6 °F 26.6 °F 35.6 °F 100% 30.02 in 9.0 mi South 13.8 mph - N/A   Clear
11:15 AM 37.4 °F 28.9 °F 35.6 °F 93% 30.01 in 10.0 mi South 13.8 mph 19.6 mph N/A   Clear
11:35 AM 39.2 °F 31.6 °F 35.6 °F 87% 30.01 in 10.0 mi South 12.7 mph - N/A   Clear
11:55 AM 41.0 °F 33.5 °F 35.6 °F 81% 30.00 in 10.0 mi South 13.8 mph - N/A   Clear
12:15 PM 44.6 °F 37.8 °F 33.8 °F 66% 29.98 in 10.0 mi South 15.0 mph 26.5 mph N/A   Clear
12:55 PM 44.6 °F 36.6 °F 32.0 °F 61% 29.96 in 10.0 mi South 19.6 mph - N/A   Clear
1:15 PM 46.4 °F 39.0 °F 32.0 °F 57% 29.95 in 10.0 mi South 19.6 mph - N/A   Clear
1:35 PM 46.4 °F 39.2 °F 32.0 °F 57% 29.93 in 10.0 mi South 18.4 mph - N/A   Clear
1:55 PM 46.4 °F 39.5 °F 32.0 °F 57% 29.92 in 10.0 mi South 17.3 mph - N/A   Clear
2:15 PM 46.4 °F 39.5 °F 32.0 °F 57% 29.90 in 10.0 mi South 17.3 mph 23.0 mph N/A   Clear
2:35 PM 46.4 °F 39.5 °F 32.0 °F 57% 29.89 in 10.0 mi South 17.3 mph - N/A   Clear
2:55 PM 46.4 °F 39.5 °F 32.0 °F 57% 29.88 in 10.0 mi South 17.3 mph - N/A   Clear
3:15 PM 46.4 °F 40.1 °F 32.0 °F 57% 29.88 in 10.0 mi South 15.0 mph - N/A   Clear
3:35 PM 44.6 °F 40.2 °F 32.0 °F 61% 29.89 in 10.0 mi SSW 8.1 mph - N/A   Clear
3:55 PM 44.6 °F 39.2 °F 32.0 °F 61% 29.89 in 10.0 mi SSW 10.4 mph - N/A   Clear
4:15 PM 41.0 °F 35.8 °F 32.0 °F 70% 29.88 in 10.0 mi South 8.1 mph - N/A   Clear
4:35 PM 39.2 °F 33.0 °F 32.0 °F 75% 29.89 in 10.0 mi South 9.2 mph - N/A   Clear
4:55 PM 37.4 °F 30.8 °F 32.0 °F 81% 29.88 in 10.0 mi SSE 9.2 mph - N/A   Clear
5:15 PM 37.4 °F 30.8 °F 32.0 °F 81% 29.89 in 10.0 mi South 9.2 mph - N/A   Clear
5:35 PM 37.4 °F 32.1 °F 32.0 °F 81% 29.89 in 10.0 mi South 6.9 mph - N/A   Clear
5:55 PM 35.6 °F 28.6 °F 32.0 °F 87% 29.89 in 10.0 mi South 9.2 mph - N/A   Clear
6:15 PM 35.6 °F 29.9 °F 32.0 °F 87% 29.89 in 10.0 mi South 6.9 mph - N/A   Clear
6:35 PM 33.8 °F 27.7 °F 32.0 °F 93% 29.89 in 10.0 mi South 6.9 mph - N/A   Clear
6:55 PM 32.0 °F 24.8 °F 32.0 °F 100% 29.89 in 10.0 mi South 8.1 mph - N/A   Clear
7:15 PM 32.0 °F 25.6 °F 32.0 °F 100% 29.88 in 10.0 mi South 6.9 mph - N/A   Clear
7:35 PM 32.0 °F 25.6 °F 32.0 °F 100% 29.87 in 10.0 mi South 6.9 mph - N/A   Clear
7:55 PM 32.0 °F 24.2 °F 32.0 °F 100% 29.85 in 10.0 mi South 9.2 mph - N/A   Clear
8:15 PM 32.0 °F 25.6 °F 32.0 °F 100% 29.87 in 10.0 mi SSW 6.9 mph - N/A   Clear
8:35 PM 32.0 °F 26.4 °F 32.0 °F 100% 29.87 in 10.0 mi SW 5.8 mph - N/A   Clear
8:55 PM 33.8 °F 26.4 °F 33.8 °F 100% 29.87 in 10.0 mi SSW 9.2 mph - N/A   Clear
9:15 PM 33.8 °F 27.0 °F 32.0 °F 93% 29.87 in 10.0 mi SSW 8.1 mph - N/A   Clear
9:35 PM 33.8 °F 28.6 °F 32.0 °F 93% 29.87 in 10.0 mi SSW 5.8 mph - N/A   Clear
9:55 PM 32.0 °F 26.4 °F 32.0 °F 100% 29.86 in 10.0 mi South 5.8 mph - N/A   Clear
10:15 PM 30.2 °F 24.3 °F 30.2 °F 100% 29.85 in 10.0 mi South 5.8 mph - N/A   Clear
10:35 PM 30.2 °F 24.3 °F 30.2 °F 100% 29.86 in 10.0 mi South 5.8 mph - N/A   Clear
10:55 PM 32.0 °F 27.5 °F 32.0 °F 100% 29.85 in 10.0 mi SSW 4.6 mph - N/A   Clear
11:15 PM 30.2 °F 24.3 °F 30.2 °F 100% 29.84 in 10.0 mi WSW 5.8 mph - N/A   Clear
11:35 PM 28.4 °F 22.2 °F 28.4 °F 100% 29.85 in 10.0 mi SW 5.8 mph - N/A   Clear
11:55 PM 28.4 °F - 28.4 °F 100% 29.86 in 9.0 mi Calm Calm - N/A   Clear